カタログに戻る

OBJECT B

運用中SSO
NORAD 100130·UNKNOWN·🇨🇳 China

打ち上げ Jul 22, 2026 から Yellow Sea Launch Area

Loading…

次のパス (今後24時間)

TLE

最新Source: Space-Track

元期: Sep 13, 2026, 19:04 UTC

1 A0130U 26168B   26256.79505581  .00003899  00000-0  24548-3 0  9993
2 A0130  97.5349 337.6026 0019556 145.0235 215.2283 15.09604810  8102

AllMySatでOBJECT Bをリアルタイム追跡

Download on the App Store